Regional Weather Roundup
Issued by NWS

Home | Current Version | Previous Version | Text Only | Print | Product List | Glossary Off
Versions: 1 2 3 4 5 6 7 8 9 10 11 12 13 14 15 16 17 18 19 20 21 22 23 24 25 26 27 28 29 30 31 32 33 34 35 36 37 38 39 40 41 42 43 44 45 46 47 48 49 50

000
ASUS43 KMKX 260111
RWRWI

WISCONSIN REGIONAL WEATHER ROUNDUP
NATIONAL WEATHER SERVICE MILWAUKEE/SULLIVAN WI
800 PM CDT MON SEP 25 2017

NOTE: "FAIR" INDICATES FEW OR NO CLOUDS BELOW 12,000 FEET WITH NO
SIGNIFICANT WEATHER AND/OR OBSTRUCTIONS TO VISIBILITY.

WIZ001-002-006>008-014>016-023>028-260200-
NORTHWEST WISCONSIN

CITY           SKY/WX    TMP DP  RH WIND       PRES   REMARKS
SUPERIOR ARPT  CLOUDY    59  55  89 N3        30.01R
ASHLAND        LGT RAIN  57  56  96 N6        30.01S
HAYWARD        CLOUDY    57  54  89 N6        30.01R
SIREN          CLOUDY    57  55  91 NE5       30.00F
CUMBERLAND     CLOUDY    55  54  94 N8        29.98F
RICE LAKE      CLOUDY    59  58  94 N3        29.99F
CHETEK         CLOUDY    61  60  96 N7        29.97F
LADYSMITH      CLOUDY    63  61  93 N12       30.00R
EAU CLAIRE     CLOUDY    64  61  90 NW6       29.96R
MENOMONIE      CLOUDY    64  59  86 N5        29.97R
NEW RICHMOND   CLOUDY    59  57  92 N7        29.99S
OSCEOLA        CLOUDY    59  59 100 N6        30.01F
$$

WIZ003>005-009-010-017-018-260200-
NORTH CENTRAL WISCONSIN

CITY           SKY/WX    TMP DP  RH WIND       PRES   REMARKS
MANITOWISH WTR NOT AVBL
ARBOR VITAE    RAIN      64  63  94 CALM      29.98F
WOODRUFF       RAIN      64  63  94 CALM      29.98F
RHINELANDER    LGT RAIN  66  65  96 NE5       29.98R
EAGLE RIVER    RAIN      64  62  93 W16G25    30.02R
LAND O LAKES   CLOUDY    62  61  96 N5        30.02R
PHILLIPS       CLOUDY    63  63 100 N5        29.99R
TOMAHAWK       PTCLDY    64  62  93 CALM      29.95S
MEDFORD        MOCLDY    67  64  89 CALM      29.96R
MERRILL        CLOUDY    71  65  79 NW3       29.94F
$$

WIZ029-030-035-036-043>047-260200-
CENTRAL WISCONSIN

CITY           SKY/WX    TMP DP  RH WIND       PRES   REMARKS
WAUSAU         LGT RAIN  71  65  81 NW6       29.94R
MOSINEE        CLOUDY    72  63  73 W6        29.95R
MARSHFIELD     CLOUDY    69  62  78 W6        29.94R
STEVENS POINT  CLOUDY    71  62  74 SW7       29.96R
WAUPACA        CLOUDY    74  67  78 CALM      29.93S
WAUTOMA        CLOUDY    74  63  68 CALM      29.93R
WISC RAPIDS    MOCLDY    69  64  84 CALM      29.96R
CAMP DOUGLAS   MOCLDY    68  64  88 W5        29.94R
$$

WIZ011>013-019>022-031-037>040-048>050-260200-
NORTHEAST WISCONSIN

CITY           SKY/WX    TMP DP  RH WIND       PRES   REMARKS
ANTIGO         CLOUDY    68  64  86 SE7       29.95R
SHAWANO        CLEAR     78  64  63 S7        29.91R
OCONTO         CLEAR     73  63  69 S5        29.92R
STURGEON BAY   CLEAR     72  62  71 S10       29.93S
GREEN BAY      CLEAR     75  64  68 S6        29.92R
MANITOWOC      CLEAR     70  64  81 S5        29.94R
APPLETON       PTCLDY    75  57  53 SE8       29.92R
CLINTONVILLE   PTCLDY    75  63  64 S7        29.92R
OSHKOSH        CLEAR     72  62  71 S7        29.92R
$$

WIZ032>034-041-042-053>061-260200-
SOUTHWEST WISCONSIN

CITY           SKY/WX    TMP DP  RH WIND       PRES   REMARKS
LA CROSSE      MOCLDY    71  68  90 S7        29.93R
SPARTA         CLOUDY    66  64  94 CALM      29.95R
VIROQUA        CLOUDY    66  65  99 CALM      29.98R
BOSCOBEL       CLOUDY    68  65  90 CALM      29.92S
PRAIRIE DU CHI CLOUDY    67  64  88 CALM      29.92S
PLATTEVILLE    CLEAR     72  64  76 E7        29.93F
$$

WIZ056-057-062-063-064-067-068-260200-
SOUTH CENTRAL WISCONSIN

CITY           SKY/WX    TMP DP  RH WIND       PRES   REMARKS
REEDSBURG      PTCLDY    69  67  93 CALM      29.94R
BARABOO/DELLS  PTCLDY    70  62  76 CALM      29.94S
LONE ROCK      MOCLDY    70  67  90 SW8       29.95R
MINERAL POINT  LGT RAIN  70  66  88 NE7       29.94F
MADISON        PTCLDY    74  63  68 NW3       29.94R
MIDDLETON      CLEAR     73  63  71 W6        29.94R
WATERTOWN      CLEAR     76  59  56 SE6       29.93R
MONROE         MOCLDY    77  59  53 NW10      29.94R
JANESVILLE     PTCLDY    79  57  47 E5        29.92R HX  80
$$

WIZ051-052-058>065-066-070>072-260200-
SOUTHEAST WISCONSIN

CITY           SKY/WX    TMP DP  RH WIND       PRES   REMARKS
MILWAUKEE      PTCLDY    78  59  51 S8        29.94R
WAUKESHA       CLEAR     75  55  50 SE6       29.96R
MILWAUKEE/TIMM CLEAR     79  54  41 SE6       29.95R
RACINE         CLEAR     77  62  59 S7        29.96R
BURLINGTON     CLEAR     74  60  62 SE5       29.94S
KENOSHA        CLEAR     76  60  57 SE6       29.95R
FOND DU LAC    CLEAR     73  59  61 S7        29.93R
SHEBOYGAN      CLEAR     70  66  87 S6        29.94R
WEST BEND        N/A     73  55  53 S3        29.95R
JUNEAU         CLEAR     73  60  62 SE5       29.95R
$$

LSZ147-162-260200-
LAKE SUPERIOR

STATION/POSITION TIME  TEMP    WIND        PRES    WAVE
                       AIR SEA DIR/SP/G            HT/PER
                 (UTC) (F)     (DEG/KT/KT) (MB)    (FT/S)
W MID LAKE BUOY  0050   58 56   60/ 10/ 12 1016.1R   0
DEVILS ISLAND    0100   59      60/  9/ 10 1016.1R
SAXON HARBOR     0030   60      20/  7/  9 1015.6R
$$

LMZ867-665-643>646-260200-
LAKE MICHIGAN

STATION/POSITION TIME  TEMP    WIND        PRES    WAVE
                       AIR SEA DIR/SP/G            HT/PER
                 (UTC) (F)     (DEG/KT/KT) (MB)    (FT/S)
N MID LAKE BUOY  0050   69 68  140/  4/  6 1014.0R   1
NORTHPORT PIER   0040   73     170/  5/  9 1012.9S
KEWAUNEE LAKESHO 0048   65     180/  2/  3 1012.8R
SHEBOYGAN LAKESH 0100   72     200/  9/ 10 1013.3R
PORT WASHINGTON  0030   71     210/  4/  8 1014.2S
ATWATER BUOY     0039   67 61  190/  8/ 10 1014.0R
MILWAUKEE LAKESH 0050   71     160/  2/  4   N/A
S MID LAKE BUOY  0050   74 71  100/  6/  6 1013.8S   0
KENOSHA   LAKESH 0100   76     180/  9/ 10 1013.5
$$

TC  - TEMPERATURE IN CELSIUS
VSB - VISIBILITY IN STATUTE MILES
WCI - WIND CHILL INDEX
HX  - HEAT INDEX





USA.gov is the U.S. government's official web portal to all federal, state and local government web resources and services.